RH
3 3 3 3 3 3 3 2 2 2 2 2 2 2 3 3 3 2 2 2 2 2 2 2 2 2 1 2 1 2 2 1 2 2 2 2 2 3 3 3 3 3 3 3 4 3 4 4 4 3 4 7 11 12 10 8 8 14 17 13 14 17 22 33 39 38 43 56 63 51 32 29 45 63 80 92 95 94 94 92 94 97 94 92 91 86 84 75
3 3 3 3 3 3 3 2 2 2 2 2 2 3 3 3 3 2 3 2 2 2 2 2 2 2 2 2 2 2 2 2 2 2 2 2 2 3 3 3 3 3 4 4 3 4 3 4 4 4 5 5 9 13 9 4 5 10 15 14 16 22 31 35 29 25 33 40 45 50 35 23 38 58 73 86 93 96 97 94 91 94 92 92 96 90 84 70
3 3 3 3 3 3 3 3 3 2 2 2 2 3 3 3 3 3 3 3 3 3 2 3 2 2 2 2 2 2 2 2 2 2 2 2 2 2 2 3 3 3 4 4 3 4 4 4 4 4 6 5 6 8 6 3 4 6 10 15 21 30 38 32 20 13 18 25 34 48 41 25 33 47 59 75 86 91 94 92 88 90 86 87 96 91 84 73
3 3 3 3 3 3 3 3 2 2 2 2 3 3 3 3 3 3 3 3 3 3 3 3 3 3 3 3 3 2 2 2 2 2 2 2 2 2 2 2 3 3 3 3 3 3 3 4 4 5 6 5 4 4 4 3 4 6 11 24 33 39 41 29 20 17 17 20 24 37 40 31 33 39 45 57 71 82 87 88 88 89 84 82 87 86 82 77
3 3 3 3 3 3 3 3 2 2 2 2 3 4 4 3 3 3 4 4 3 3 3 3 3 3 3 3 3 3 3 3 2 2 2 2 2 2 2 3 3 3 3 3 3 3 4 4 4 6 6 5 4 5 5 3 5 10 16 31 40 41 38 25 21 22 19 20 20 23 27 23 28 37 42 47 56 71 81 85 85 84 83 80 80 81 81 78
3 3 3 3 3 3 3 2 2 2 2 3 4 4 4 4 4 4 4 4 4 4 4 4 4 3 3 3 3 4 3 3 3 2 2 2 2 2 2 3 3 3 4 3 3 4 4 4 5 6 5 5 5 6 5 4 7 10 14 30 40 37 30 20 22 24 18 20 20 21 21 15 20 32 41 45 47 56 70 78 79 79 80 78 80 82 83 81
3 3 3 3 3 2 2 2 2 2 2 3 4 4 4 4 4 4 4 4 4 4 4 4 4 4 4 3 3 3 3 3 3 3 3 2 2 2 2 2 3 3 4 3 4 4 4 4 5 6 6 6 6 6 4 6 9 6 11 26 31 28 27 26 28 26 21 20 16 20 23 13 16 29 40 47 44 45 56 67 72 76 79 81 84 83 82 83
3 3 3 3 2 2 2 2 2 2 3 4 4 4 4 5 4 5 5 4 5 4 5 4 4 4 4 4 3 3 3 3 3 3 3 2 2 2 2 2 2 3 3 4 4 3 4 5 6 7 7 6 6 5 4 7 10 6 8 15 17 26 40 41 36 33 32 27 19 19 18 10 13 22 34 44 42 40 45 55 64 71 80 87 86 81 82 85
3 3 3 3 3 3 3 3 3 3 3 4 4 5 5 5 5 5 5 5 5 5 5 5 5 5 4 4 3 3 3 3 3 3 3 3 3 2 2 2 2 3 3 4 4 4 4 5 6 7 8 7 6 6 5 7 10 7 7 8 12 33 52 51 46 47 44 36 29 25 17 12 18 22 28 35 35 34 38 48 59 68 79 86 85 82 82 86
3 3 2 3 3 3 3 3 3 4 4 4 5 5 5 5 5 5 5 5 5 5 5 5 5 5 4 3 3 3 3 3 3 3 3 3 3 3 2 2 2 2 3 3 3 4 5 5 6 6 8 7 6 7 7 7 8 7 12 15 22 43 56 50 49 51 48 44 37 31 21 17 25 33 36 38 36 34 37 42 51 62 74 81 84 83 81 87
3 3 3 3 3 3 4 4 4 4 5 5 5 5 5 5 5 5 5 5 5 5 5 5 5 4 4 4 3 3 3 3 3 3 3 3 3 3 2 2 2 2 3 3 4 4 4 5 5 6 7 7 7 7 7 8 8 10 19 27 35 49 52 43 44 50 50 47 39 34 29 19 22 34 39 43 44 42 40 41 44 53 63 72 79 77 79 88
3 3 3 3 3 4 4 4 5 5 5 5 5 5 5 5 5 5 5 5 5 5 5 5 4 4 4 4 3 3 3 3 3 3 3 3 3 3 2 3 2 2 3 2 3 3 4 5 5 6 7 7 7 7 8 9 10 13 20 28 38 46 43 37 43 50 50 46 38 36 36 28 23 26 31 37 42 42 43 45 50 58 62 66 73 77 79 81
3 3 3 3 4 4 4 4 4 5 5 5 5 5 5 5 5 5 5 5 5 5 4 4 4 4 3 3 3 3 3 3 3 3 3 3 3 3 2 3 2 2 2 3 3 3 4 5 6 7 7 7 7 8 8 8 13 19 19 21 29 34 31 31 40 49 52 49 40 34 33 31 25 21 26 35 39 38 43 49 55 69 77 75 75 79 81 76
3 3 3 3 4 4 4 4 4 5 5 5 5 5 5 5 5 5 5 4 4 4 4 4 3 3 3 3 3 3 3 3 3 3 3 3 2 3 2 2 3 2 2 3 3 3 4 5 6 7 7 8 8 8 8 9 15 18 19 21 23 28 27 26 37 50 57 55 44 33 28 27 26 23 22 29 38 37 39 49 53 61 75 82 79 75 73 70
3 3 3 3 4 4 4 4 4 4 4 5 5 4 5 5 4 4 4 4 4 4 4 3 3 3 3 3 3 3 3 3 3 3 2 3 2 2 3 3 3 3 3 3 3 3 4 5 6 7 7 7 8 8 9 16 19 19 26 28 24 34 39 33 41 50 55 55 42 34 33 30 33 32 23 25 39 41 35 41 49 54 65 78 80 74 67 63
3 3 3 3 3 4 4 4 4 4 4 4 4 4 4 4 4 4 4 4 4 4 3 3 3 3 3 3 3 2 3 3 3 3 2 3 3 2 3 3 3 3 3 3 3 3 3 5 6 7 7 7 8 8 12 20 22 20 24 26 27 42 52 48 50 52 53 52 39 37 42 36 37 39 31 28 32 38 38 36 42 52 62 75 78 72 65 61
6 4 3 3 3 3 3 4 4 4 4 4 4 4 4 4 4 3 3 3 3 3 3 3 2 2 3 2 3 2 2 3 2 3 3 3 3 3 3 3 3 3 3 3 3 3 4 5 6 7 7 8 8 7 13 21 21 17 19 24 30 39 50 54 55 53 51 50 40 40 47 41 39 38 34 33 25 26 37 38 39 45 51 62 71 71 67 64
8 7 6 5 4 3 3 3 3 3 3 3 3 3 3 3 3 3 3 2 3 3 2 3 3 3 3 3 3 3 3 3 3 3 2 3 2 2 3 3 3 2 3 3 3 4 4 5 5 7 8 8 9 8 13 22 21 18 17 22 36 45 51 54 54 52 47 46 44 45 50 46 43 40 37 39 31 20 26 35 40 42 44 48 58 68 71 66
9 8 8 7 7 6 5 4 4 4 3 3 3 3 3 3 3 3 3 3 3 3 3 3 4 4 3 3 3 3 3 3 3 3 2 3 3 3 3 2 3 3 3 3 4 4 4 5 5 6 8 8 9 9 13 21 18 17 14 17 38 50 50 49 48 50 47 43 45 49 52 49 47 45 41 40 37 27 20 27 37 40 43 46 51 62 70 67
10 9 9 9 8 8 7 7 6 6 5 5 5 5 4 4 4 4 4 4 4 4 4 4 4 4 3 3 3 3 3 3 3 3 3 3 3 3 3 3 3 2 3 3 3 5 4 5 5 6 8 8 9 9 12 16 14 14 14 14 27 36 41 47 43 41 40 39 46 51 50 51 50 45 44 42 41 40 32 25 30 39 45 49 51 55 60 62
9 9 9 9 9 9 9 8 8 8 7 7 7 7 6 5 5 5 5 5 5 5 5 5 4 4 3 3 3 3 3 3 3 3 3 3 3 3 3 3 3 3 3 3 3 5 5 4 5 6 8 8 9 10 10 13 13 14 13 14 23 29 34 42 41 36 34 39 50 50 45 49 49 43 43 43 40 49 55 43 33 36 42 43 43 42 44 49
9 9 9 9 9 9 9 9 9 9 8 8 8 8 7 7 7 6 6 5 5 5 5 5 4 3 3 3 3 3 3 3 3 3 3 3 3 3 3 3 3 3 3 4 4 5 5 5 5 5 6 8 9 10 11 13 14 13 14 21 30 32 29 29 34 35 35 44 49 43 43 44 44 45 43 42 39 46 63 66 55 47 43 39 35 33 32 33
8 8 8 8 9 9 9 9 9 9 9 9 9 9 8 8 8 7 7 6 5 5 5 5 4 3 3 3 3 3 3 3 3 3 3 3 4 3 4 4 3 4 4 4 5 5 5 6 6 7 7 7 8 9 10 10 12 17 25 32 33 32 32 32 33 34 38 47 42 38 46 44 44 51 44 38 40 42 54 67 68 62 55 49 42 35 32 30
9 8 8 8 8 8 8 8 8 9 9 9 9 9 8 8 8 8 7 6 6 5 5 4 4 4 4 3 4 3 3 4 3 4 4 4 5 4 4 4 3 4 4 5 6 6 7 7 8 10 9 8 9 10 10 10 17 27 33 36 35 32 32 33 35 34 39 46 44 44 50 45 47 52 45 44 48 47 53 61 61 57 53 50 46 39 38 37
16 16 15 14 13 11 9 8 8 8 8 9 9 9 8 8 8 8 7 7 6 5 5 5 4 4 4 4 4 4 4 4 4 5 5 4 4 4 4 4 4 5 5 5 6 7 7 7 8 9 9 9 10 11 12 15 26 34 34 34 37 35 32 35 37 36 40 48 53 56 51 44 46 48 47 54 59 55 54 58 58 52 46 44 43 42 41 43
27 27 27 26 25 22 19 17 14 11 9 8 8 8 9 8 8 8 7 7 6 6 6 5 6 6 6 5 5 5 4 4 5 4 5 5 4 5 4 4 5 5 5 5 6 8 8 8 8 9 11 12 13 17 22 27 34 38 36 37 40 38 37 39 40 39 46 51 51 50 46 42 47 53 55 59 62 58 53 57 61 55 51 50 48 46 46 48
29 30 32 33 34 33 31 29 26 21 16 10 8 8 8 8 8 7 8 7 8 10 10 7 8 11 10 8 6 6 6 7 7 5 5 5 5 5 5 5 6 6 5 5 7 9 9 9 10 13 19 23 23 28 32 32 35 37 38 38 40 41 41 41 41 42 47 46 41 41 43 47 52 61 65 61 57 54 50 58 62 55 51 51 50 50 51 54
22 24 25 27 29 30 31 31 30 29 25 18 12 9 9 9 8 8 9 12 19 24 21 15 12 13 12 9 9 7 8 10 9 8 6 5 6 5 5 5 5 6 6 6 7 9 9 9 9 13 22 29 31 32 31 31 33 35 38 38 37 39 40 42 44 45 46 44 43 43 44 51 60 67 68 60 54 53 55 61 62 54 50 47 47 52 57 59
18 18 20 21 21 23 24 26 27 29 30 25 17 11 12 12 10 12 11 17 32 36 30 25 21 20 16 11 11 10 9 12 12 11 8 6 6 6 6 6 6 8 8 7 8 10 10 10 11 17 25 27 28 26 22 24 26 26 31 36 36 36 38 40 42 44 45 44 49 53 48 53 66 72 69 63 60 61 63 65 62 58 57 53 50 53 60 62
16 15 16 18 19 21 23 25 26 27 29 30 23 15 13 15 14 16 15 20 36 40 34 32 29 26 22 15 13 13 11 13 16 15 11 9 8 7 7 8 9 11 10 10 14 17 19 20 22 28 34 34 33 30 25 24 23 21 26 32 32 33 36 36 38 43 47 50 57 61 57 60 67 66 64 65 65 65 64 63 60 58 58 57 54 53 58 62
17 14 13 13 16 20 22 24 26 26 27 29 28 20 14 18 19 20 23 25 33 39 36 34 31 25 23 19 15 15 14 16 19 18 15 13 12 12 11 10 12 14 12 14 18 22 23 26 32 38 43 45 42 40 36 28 25 27 30 34 31 33 40 41 42 47 53 59 63 62 58 59 60 56 56 63 69 69 66 66 65 62 60 60 57 53 53 57
20 17 15 12 12 15 19 22 24 25 26 27 29 25 16 20 23 22 30 33 36 43 40 37 39 30 24 22 18 17 16 18 21 20 19 18 15 16 16 14 15 15 14 15 17 20 20 27 39 43 45 45 40 41 39 30 33 38 40 40 37 37 45 48 48 50 52 56 59 57 54 53 53 53 57 68 77 75 69 69 68 64 63 62 59 56 55 53
22 19 17 15 12 12 14 19 23 24 26 25 27 27 20 22 26 24 32 38 38 44 43 39 42 39 35 30 22 19 18 19 23 21 20 21 19 20 18 18 18 16 17 17 18 25 26 31 43 45 44 44 40 42 41 33 36 40 40 41 41 43 47 48 50 52 52 52 54 52 50 50 50 52 62 74 78 74 68 69 68 62 60 60 58 55 55 54
24 19 16 16 15 13 12 15 20 23 25 25 25 28 24 23 27 26 30 36 33 37 39 30 31 41 48 42 29 24 21 20 21 20 20 21 21 22 21 20 20 17 18 19 22 30 32 34 40 40 43 44 40 41 40 35 34 37 40 40 41 47 48 48 51 53 53 52 52 51 49 49 46 51 66 72 70 69 68 68 66 59 52 52 54 53 53 55
23 19 15 14 14 15 13 11 16 21 25 25 24 26 26 24 28 25 27 33 31 36 41 31 30 44 54 50 38 28 25 25 23 19 19 21 21 24 23 23 23 20 19 22 29 33 34 39 42 42 46 46 42 42 39 36 35 39 45 43 43 48 48 49 53 53 53 51 51 52 50 49 50 56 67 67 66 69 67 63 62 58 51 48 51 50 47 48
21 17 14 12 11 13 14 12 13 17 24 27 25 25 26 25 28 26 25 29 31 41 52 46 43 52 58 57 47 34 31 35 32 24 22 20 20 25 27 26 28 26 20 22 32 36 37 45 49 48 50 48 46 46 42 38 36 40 45 43 44 48 46 48 51 50 50 51 54 53 49 51 56 61 65 64 65 68 65 62 60 58 54 50 51 49 44 40
20 17 14 13 11 10 13 13 12 14 22 29 26 25 26 27 29 28 26 28 30 43 60 59 52 53 55 55 53 50 47 46 44 39 35 31 27 30 32 31 34 34 27 25 33 40 43 50 54 52 51 51 49 49 46 42 38 41 46 44 44 47 47 48 48 47 47 50 55 53 50 54 58 61 62 61 63 67 66 63 59 58 56 53 51 48 45 41
20 17 15 14 12 11 10 12 13 13 19 28 28 25 25 28 29 27 29 34 33 39 57 62 56 51 47 41 42 52 54 51 55 54 51 48 40 37 41 41 42 41 35 32 36 42 45 47 53 52 49 51 50 46 46 43 39 42 46 45 43 44 45 43 45 48 50 54 58 56 55 56 56 58 58 54 55 63 66 62 57 58 56 52 46 42 43 42
21 17 16 16 14 12 10 11 13 13 15 23 28 27 26 28 28 24 26 36 37 39 53 61 55 52 52 45 43 53 55 51 57 59 58 56 47 44 48 47 48 49 46 41 37 42 45 41 46 49 48 52 51 46 45 44 44 47 47 45 43 46 48 44 47 55 58 59 60 58 56 54 54 56 53 48 50 57 62 60 54 50 47 47 44 40 44 45
23 18 16 16 15 14 13 11 12 14 14 18 25 31 29 26 27 25 23 30 39 45 52 57 54 52 57 56 53 60 61 53 51 52 56 58 51 48 50 49 50 52 52 49 43 44 46 40 41 45 47 53 54 50 47 46 49 52 49 48 49 53 55 51 55 61 58 57 59 58 56 52 51 54 53 50 48 48 53 53 49 43 41 43 44 42 44 44
26 21 17 15 14 14 14 13 12 13 13 13 20 29 29 25 27 27 22 26 39 49 52 56 57 53 55 59 58 61 64 60 55 53 56 61 56 52 55 55 52 51 51 52 49 46 45 43 42 43 49 55 54 53 51 48 52 54 52 53 54 55 54 52 56 59 55 54 56 55 52 50 50 53 54 53 45 44 50 48 44 41 39 42 42 40 42 43
28 26 22 20 17 14 14 14 14 14 13 13 16 19 20 20 22 21 22 27 35 44 50 54 56 54 54 57 58 59 61 62 63 61 58 60 59 58 62 60 54 53 54 52 51 50 48 48 46 44 50 56 55 56 57 54 57 59 56 56 57 57 55 54 55 55 54 54 55 55 52 53 56 55 57 58 47 46 51 44 39 39 37 40 38 34 38 42
31 30 28 26 23 20 16 14 13 13 13 14 16 15 18 21 22 20 21 23 27 35 43 46 48 50 53 55 55 57 58 59 65 67 59 56 58 59 63 62 55 54 56 53 52 52 49 49 49 45 48 53 55 58 59 58 60 62 61 59 58 58 56 56 57 56 55 55 55 56 55 57 59 55 59 61 50 49 52 41 38 39 37 39 37 29 31 36
31 29 27 24 22 21 19 16 15 14 13 14 15 16 23 30 35 37 30 20 17 21 29 35 37 39 44 49 52 56 57 56 63 70 62 53 56 58 59 62 57 53 55 54 52 53 50 48 49 48 45 46 52 58 59 59 59 60 61 61 59 58 56 56 57 54 52 55 58 61 60 60 59 55 60 64 55 53 52 41 37 40 40 40 35 26 26 31
27 24 22 19 18 17 18 19 19 16 15 15 14 16 22 24 28 34 31 23 19 16 17 23 28 32 38 43 46 53 57 54 58 67 63 54 56 60 59 60 59 55 54 54 54 55 53 49 50 50 47 45 49 55 57 58 59 58 61 63 61 58 56 58 61 59 58 62 66 66 65 64 59 52 57 65 61 54 49 42 39 38 35 35 32 25 24 30
23 22 20 18 16 15 15 17 17 18 20 20 19 19 20 18 17 19 20 19 19 18 16 16 19 27 36 40 44 49 54 53 53 61 66 60 57 59 61 62 62 59 56 56 58 58 55 51 50 50 50 48 46 48 51 53 56 59 62 65 64 61 64 69 69 65 67 70 70 68 67 67 63 56 55 61 61 57 52 47 42 38 32 30 30 27 26 30
24 24 23 21 19 18 17 15 13 16 19 21 23 22 20 18 16 15 16 16 16 19 21 18 16 19 23 31 41 48 51 51 50 55 64 65 57 55 60 65 63 59 57 57 59 60 59 55 51 50 51 51 48 47 48 47 52 60 64 65 66 67 70 73 69 65 68 69 68 69 69 69 67 62 59 56 55 60 59 49 41 38 35 33 31 28 26 28
26 25 24 23 23 24 23 21 18 17 16 16 19 20 20 19 16 13 14 14 14 16 21 24 24 20 16 18 27 39 48 50 49 51 60 66 59 53 60 69 67 63 62 62 62 61 59 57 54 52 52 51 49 49 50 47 50 61 66 64 66 69 69 69 67 67 69 68 68 70 69 68 67 65 62 56 51 57 61 53 43 40 39 39 35 29 25 25
27 26 26 25 25 25 24 24 24 22 21 21 19 18 20 20 17 14 14 15 14 14 17 23 27 27 24 19 16 25 38 47 49 49 54 60 59 54 59 69 72 70 68 67 64 59 55 55 55 53 51 50 49 50 51 47 45 55 65 64 63 64 66 66 65 66 70 69 67 67 66 66 66 65 63 59 54 55 59 57 49 43 42 42 37 31 26 25
22 22 23 23 23 22 21 20 21 22 24 26 25 24 24 22 20 18 17 18 17 16 18 22 27 31 32 28 21 19 26 35 43 47 47 51 54 52 54 63 71 72 70 67 64 56 52 54 55 51 49 48 47 48 50 49 44 45 53 58 59 60 63 64 64 66 70 68 63 63 64 65 66 65 64 63 58 54 56 57 52 46 44 43 40 38 34 29
17 17 18 18 18 18 17 17 17 17 19 20 20 21 23 24 24 24 22 20 18 17 19 20 24 27 29 30 29 24 22 26 33 41 44 45 51 53 51 54 63 69 70 68 64 55 49 50 51 49 47 45 44 46 48 50 45 36 33 37 43 53 59 60 62 67 70 69 66 66 68 68 68 67 65 63 60 57 58 58 52 48 46 41 40 44 41 35
22 22 21 21 20 20 19 19 18 18 17 17 16 14 15 18 20 21 22 21 19 17 17 16 17 18 19 22 25 24 23 23 25 32 36 37 44 52 55 55 55 59 66 69 66 59 53 51 51 49 45 41 40 40 40 38 35 32 32 31 30 38 47 53 61 68 71 71 69 67 69 69 68 67 65 64 60 56 60 62 56 52 49 41 39 46 46 41
Wind_Speed
12 13 12 10 10 10 10 11 13 14 15 15 16 17 15 12 12 11 10 10 9 9 8 8 7 7 6 5 5 4 3 3 2 2 2 1 1 1 1 1 2 3 4 5 5 6 6 8 7 7 9 8 5 3 4 4 6 9 9 9 12 13 12 11 11 11 11 11 10 9 7 6 6 7 6 6 6 3 3 5 7 8 9 9 9 7 4 2
11 13 13 12 11 10 10 11 13 14 15 15 17 18 15 13 13 12 11 10 10 9 9 8 8 7 6 5 4 3 3 2 2 2 1 1 1 1 1 0 1 2 3 3 4 4 6 6 6 7 7 5 3 2 1 3 6 9 11 12 14 12 11 11 10 10 10 10 9 9 7 5 5 6 6 5 4 3 4 5 7 8 8 6 6 6 4 3
10 11 13 13 12 12 11 12 13 14 14 16 19 18 15 13 13 12 11 11 10 10 9 8 8 7 6 5 4 3 2 2 1 1 1 1 0 0 0 0 1 1 2 2 4 5 5 5 6 7 6 7 4 3 5 4 6 9 13 15 13 10 10 10 11 11 11 12 11 9 8 6 5 5 5 4 4 3 5 6 6 8 7 4 3 5 5 4
9 10 12 13 13 13 13 13 13 14 14 17 19 17 15 14 13 13 12 11 10 10 9 8 7 6 5 4 4 3 2 1 0 1 1 1 1 1 1 0 1 1 1 3 4 5 6 7 7 6 7 10 9 8 8 6 6 10 13 13 11 9 9 10 12 13 13 13 12 10 8 6 5 6 6 5 4 4 4 5 5 6 5 3 3 4 4 4
9 10 11 12 13 14 14 13 14 14 15 18 19 17 15 14 13 13 12 11 10 9 9 8 7 6 5 3 3 2 1 1 0 1 2 2 2 2 2 1 1 1 2 3 4 4 6 7 6 4 9 11 12 12 10 8 6 9 11 11 9 8 8 10 12 12 12 13 13 12 9 7 5 6 7 6 6 5 5 4 4 4 3 3 3 3 3 3
10 10 11 12 13 13 14 14 14 14 16 19 19 17 15 14 14 13 12 12 10 9 9 8 7 5 4 2 1 1 1 1 1 2 2 3 4 3 3 2 2 2 3 4 4 5 5 7 6 6 10 12 11 10 9 8 6 7 10 10 9 7 8 11 11 10 10 11 13 13 12 8 5 5 6 7 6 6 5 4 4 4 4 4 3 3 5 4
10 10 11 12 13 13 14 14 14 15 17 20 19 17 16 14 13 13 12 11 10 9 9 7 6 5 3 1 2 3 2 1 2 3 3 4 5 5 4 4 3 3 4 5 5 5 5 6 6 7 10 11 9 9 8 6 4 6 10 11 8 8 9 11 10 9 9 10 12 13 13 10 6 4 5 6 7 6 6 5 4 3 3 3 3 4 5 4
11 11 11 12 13 13 13 14 14 16 18 19 18 17 16 14 13 13 12 11 10 9 8 8 6 5 3 3 4 5 3 3 4 4 4 4 5 6 7 6 5 5 5 5 6 6 6 5 5 6 9 11 11 10 8 5 4 7 10 10 9 9 10 11 11 10 10 11 12 13 13 12 8 5 4 5 7 6 5 5 3 3 2 2 3 4 4 2
12 12 12 13 13 13 14 14 15 16 18 18 17 16 15 14 14 13 12 11 10 10 9 8 7 6 5 6 7 7 5 5 6 5 6 6 6 7 8 8 7 6 6 7 7 6 6 5 4 4 7 10 11 10 9 6 5 7 10 10 10 10 12 13 12 12 12 12 13 13 13 11 8 5 4 4 6 5 5 4 3 2 2 2 3 3 4 3
13 13 13 13 14 14 14 15 15 16 17 17 16 15 15 14 14 13 13 12 12 11 10 10 9 8 8 8 9 9 7 7 7 7 7 7 8 9 9 9 9 8 8 8 8 7 7 6 6 4 6 9 9 7 8 6 5 6 9 11 10 10 11 13 13 12 12 12 12 13 13 11 9 7 6 4 4 4 4 4 3 2 1 2 3 3 4 3
13 14 14 14 14 15 15 15 16 16 16 16 16 15 15 14 14 13 13 13 12 12 11 11 11 10 10 10 11 10 9 9 9 9 9 9 9 9 10 10 10 10 10 10 9 9 8 7 7 5 6 8 7 6 5 4 4 5 8 9 9 7 7 11 13 12 12 13 14 14 14 12 10 8 7 5 3 2 3 4 4 3 2 2 3 3 2 2
13 14 15 15 15 15 16 16 16 16 16 16 16 15 15 14 14 14 14 13 13 13 12 12 12 12 12 12 12 12 11 11 11 11 11 11 11 11 11 11 11 11 11 11 10 10 9 7 7 7 6 7 6 5 4 3 4 4 5 7 7 5 3 8 13 13 14 16 17 17 16 15 12 9 9 8 4 2 1 2 3 3 2 3 4 4 3 2
13 14 15 15 16 16 16 16 17 17 16 16 16 16 16 15 15 15 15 15 14 14 14 13 13 13 14 14 13 13 13 13 13 13 13 12 12 12 12 12 12 12 12 12 11 10 9 6 6 6 6 6 5 4 4 5 3 3 4 4 4 3 2 8 13 14 15 17 19 18 15 15 15 12 10 9 6 4 4 3 3 3 3 3 4 4 4 4
12 14 15 16 16 16 17 17 17 17 17 17 17 17 17 17 17 17 16 16 16 15 15 15 15 15 15 16 15 14 14 15 14 14 14 13 13 13 13 13 13 13 13 13 12 10 8 8 8 6 5 5 5 5 6 6 6 5 7 8 8 6 5 9 12 14 14 15 19 19 14 14 16 15 11 8 7 5 4 3 3 4 4 3 3 1 2 4
11 13 15 16 16 17 17 18 18 18 18 18 18 18 18 18 18 17 17 17 17 16 16 16 16 16 17 17 16 15 15 15 15 15 15 14 14 14 14 14 14 14 13 12 11 10 9 9 8 7 6 5 4 5 5 4 5 6 8 11 12 10 9 10 11 13 13 13 18 19 16 16 16 18 14 9 6 4 3 3 3 3 4 4 3 2 3 4
10 12 14 15 16 17 18 18 18 18 18 18 18 18 18 18 18 18 18 18 18 18 18 18 18 18 18 18 17 17 16 16 15 16 16 16 15 15 14 14 15 14 13 12 11 10 9 9 9 9 8 7 6 7 6 3 3 5 6 9 10 8 10 12 12 13 12 12 16 20 21 19 17 18 15 11 8 6 4 4 4 3 2 3 3 3 5 5
9 10 12 14 15 17 17 18 18 19 19 19 19 19 19 19 19 19 19 19 18 18 18 18 18 18 18 17 17 18 17 16 16 16 16 15 16 15 14 14 14 14 13 12 12 10 9 9 10 9 8 8 8 9 8 5 7 8 6 6 6 6 9 12 13 14 14 14 16 20 22 21 20 19 15 13 12 8 5 5 6 5 3 3 2 3 5 5
9 10 11 12 13 15 16 17 17 18 19 19 19 19 19 19 19 19 19 18 18 17 17 17 16 17 17 15 15 16 16 15 15 15 14 14 15 14 14 14 14 13 13 12 11 10 10 10 11 9 8 9 8 9 7 7 9 8 7 6 5 6 10 12 15 16 17 16 16 18 20 22 23 21 18 16 13 9 6 5 6 6 6 5 4 5 6 6
9 10 11 11 12 13 14 15 15 16 17 17 18 17 18 18 17 17 17 17 16 15 15 15 15 16 15 13 13 14 14 13 13 13 13 13 13 13 13 13 13 13 13 12 11 11 11 12 13 12 11 11 10 9 9 10 11 11 11 8 3 7 12 14 15 18 19 15 14 16 19 21 21 21 20 18 13 10 9 6 6 6 6 7 6 6 7 8
10 11 11 12 13 13 14 14 15 15 15 16 16 16 16 16 16 16 17 16 15 14 15 15 15 15 13 12 13 13 12 11 11 11 11 11 12 12 12 12 12 12 12 12 11 11 12 14 15 13 12 11 10 10 11 12 14 15 14 8 4 5 11 16 16 14 13 11 13 15 17 19 20 20 20 19 16 14 11 9 8 7 6 7 6 6 8 11
10 11 12 12 13 14 14 15 15 15 16 16 16 16 16 16 16 16 16 15 14 15 16 15 14 13 12 12 12 12 11 11 11 10 10 11 11 11 10 11 11 12 12 11 11 11 14 16 15 13 13 12 11 11 10 12 15 16 14 6 6 7 11 17 16 8 6 9 12 14 16 19 20 20 19 18 17 15 12 10 9 9 8 9 8 7 10 12
11 11 12 12 12 13 14 14 15 15 16 16 16 17 17 16 15 15 14 15 14 14 15 14 14 13 12 11 11 12 11 10 11 11 10 10 11 10 10 11 11 11 11 10 11 13 15 15 13 13 14 13 12 11 11 13 13 11 6 7 9 6 7 8 9 5 9 11 11 13 17 20 21 21 20 16 15 13 11 10 9 9 10 11 10 11 12 13
13 13 13 12 13 14 14 14 14 14 15 15 16 17 17 16 15 14 14 14 14 14 15 14 13 12 12 11 11 12 10 10 12 11 10 10 10 10 11 11 11 11 11 10 11 14 14 12 11 13 14 14 13 12 12 10 6 1 6 10 10 2 1 4 5 8 11 9 9 12 16 20 21 21 20 17 14 12 11 11 9 8 10 9 9 10 12 12
12 12 12 12 13 14 14 14 14 14 14 15 16 16 17 16 15 14 13 13 13 13 13 13 11 12 13 10 10 12 11 11 13 11 10 10 10 11 12 11 11 10 10 10 12 13 13 12 12 12 14 15 12 10 10 6 1 5 7 7 6 3 1 6 8 10 11 9 9 12 16 21 22 21 21 17 12 11 13 14 14 12 11 9 7 7 9 10
10 10 10 10 11 13 13 13 13 14 15 16 16 15 15 15 14 14 13 13 13 12 11 12 11 13 12 10 10 12 11 10 12 11 9 10 11 11 11 11 10 10 11 12 13 14 13 12 12 12 13 13 9 7 5 1 5 4 2 2 2 1 3 6 9 11 11 9 8 12 16 21 22 22 22 17 12 13 17 19 18 16 14 11 8 8 10 11
11 11 11 11 11 12 12 12 12 13 14 15 16 15 14 13 13 13 13 13 12 11 11 11 9 9 10 10 10 10 10 9 10 10 10 10 11 10 10 11 10 11 13 13 12 11 12 12 11 7 5 6 6 4 2 5 8 4 1 1 3 6 6 7 6 6 8 8 9 14 17 20 22 23 23 21 19 19 21 23 20 17 16 15 12 11 12 13
13 13 13 13 13 13 13 12 12 12 12 13 14 14 13 13 13 12 11 10 9 9 9 8 6 6 6 8 8 9 9 8 9 10 9 9 9 9 9 10 11 12 13 12 11 12 13 13 10 4 3 4 6 7 7 11 9 4 2 2 5 8 11 10 5 5 6 9 12 17 19 20 22 23 24 25 25 25 25 26 22 17 17 17 16 15 14 15
11 12 13 14 15 15 14 14 14 12 12 12 12 11 11 11 11 9 7 5 5 6 6 5 4 4 4 5 6 8 7 6 7 7 8 9 9 9 10 10 11 10 11 11 12 13 13 13 11 6 5 8 10 10 11 14 11 5 4 5 7 11 13 11 5 4 8 12 14 19 22 22 23 24 25 26 26 25 24 23 20 18 18 17 17 14 12 14
8 9 11 11 13 13 14 14 13 13 13 12 11 10 9 9 8 8 7 6 5 4 4 5 5 4 3 4 5 7 6 5 4 5 7 8 8 9 9 9 8 7 8 8 8 11 9 6 6 1 8 11 10 10 10 10 9 7 7 8 8 11 13 13 11 10 14 15 14 18 22 22 21 21 22 22 21 19 18 18 19 18 17 16 16 13 12 14
7 7 9 10 10 11 11 12 12 12 13 12 11 10 10 9 8 7 6 8 7 3 3 5 6 5 4 5 6 6 6 6 4 5 7 7 7 8 7 7 6 4 6 5 3 5 3 3 4 7 8 2 5 10 12 12 12 12 11 9 7 7 10 15 17 14 14 13 11 15 19 18 17 18 18 18 16 15 16 17 18 17 15 16 16 14 12 12
5 6 7 8 9 10 10 11 12 12 12 12 12 11 11 10 8 7 6 8 8 5 4 4 4 5 5 5 6 6 6 6 5 6 7 7 8 7 6 7 6 4 6 7 6 5 4 4 4 7 6 7 4 5 11 13 13 10 11 11 9 7 6 7 10 8 9 9 9 13 14 12 14 18 19 17 15 15 17 17 17 15 14 15 15 15 13 12
5 6 6 6 7 8 9 10 11 11 11 12 13 12 11 10 9 8 8 9 8 6 5 4 2 4 5 4 5 6 7 6 6 7 6 7 7 6 7 7 6 6 6 8 7 6 7 5 4 6 5 6 3 4 8 5 5 3 3 4 7 9 4 5 4 8 10 11 12 14 15 15 17 19 19 16 12 14 16 17 17 15 14 14 14 14 13 13
6 6 6 5 5 6 7 8 9 10 10 11 12 13 13 11 12 12 11 12 11 7 6 6 5 3 3 5 6 6 7 6 6 7 7 7 7 7 8 6 7 8 7 7 6 4 7 5 2 3 5 3 2 4 10 1 5 3 4 5 5 3 5 8 8 10 14 16 16 19 21 21 22 21 18 14 11 12 15 16 17 15 13 11 11 11 11 12
6 6 6 5 5 5 4 6 8 9 9 10 11 13 15 15 15 17 16 15 14 10 9 10 8 3 2 5 6 6 6 6 7 7 7 8 8 8 8 6 7 9 8 8 6 6 9 6 2 1 4 3 4 2 6 2 4 1 0 5 4 6 9 8 9 12 16 17 18 22 23 24 25 20 17 15 13 13 14 15 16 15 12 8 6 8 9 10
6 6 6 5 5 5 4 3 5 7 8 9 10 12 16 18 19 20 19 17 15 11 9 10 7 4 2 5 4 5 6 5 8 9 8 9 9 7 7 6 7 10 9 9 7 7 8 5 3 1 3 2 0 2 3 6 6 3 1 2 4 8 8 6 10 13 16 19 21 23 23 22 20 15 15 16 13 13 15 14 14 13 12 9 7 8 9 10
6 6 5 5 5 4 3 2 3 6 7 9 11 13 17 20 22 23 21 18 15 10 7 9 5 4 1 3 2 3 5 4 7 9 8 10 10 6 6 6 8 10 10 9 9 7 4 3 3 3 6 2 2 2 4 6 7 7 4 2 2 2 5 6 10 13 16 18 17 17 17 16 14 14 15 15 12 14 15 14 12 12 11 11 11 12 12 11
6 6 5 4 4 4 3 2 1 4 7 9 12 15 18 21 24 24 22 21 17 12 10 8 7 6 6 6 4 4 4 2 6 7 7 10 10 7 7 6 8 10 10 9 8 7 6 8 6 3 6 2 1 2 3 5 4 5 4 4 5 4 5 8 12 15 18 16 14 16 18 17 16 16 14 12 12 13 14 13 13 13 12 12 13 15 15 13
6 6 5 4 3 3 3 3 2 5 8 10 12 15 18 21 24 24 22 22 20 17 18 15 12 12 10 9 10 9 6 4 4 7 8 11 10 7 6 4 5 7 9 10 9 8 9 10 8 4 3 3 4 1 2 5 4 1 4 3 5 6 8 11 12 15 17 16 17 20 20 18 18 17 14 13 14 13 11 11 13 14 14 14 15 16 15 14
5 5 5 4 4 2 2 3 4 5 8 11 12 14 18 21 23 22 20 22 22 21 23 23 20 17 13 11 11 11 8 8 7 7 7 10 7 4 4 2 3 6 5 7 9 8 6 9 10 6 2 3 5 5 3 1 4 4 4 6 7 8 8 11 11 13 14 15 18 19 18 18 18 18 17 16 15 12 11 11 12 12 14 14 15 15 14 12
5 5 5 4 3 3 2 3 5 7 9 11 12 15 20 21 21 21 18 18 23 24 25 26 25 21 17 16 15 12 11 12 12 9 7 8 6 3 1 1 4 6 4 6 8 10 9 9 8 7 8 10 9 5 3 1 1 6 5 8 8 6 7 10 12 14 15 15 17 18 20 20 19 20 20 16 13 12 11 11 11 11 13 13 13 13 13 11
4 5 6 5 5 4 3 2 4 7 8 10 13 16 19 19 19 21 17 12 20 28 28 28 27 23 20 20 21 17 13 13 13 11 9 9 9 6 5 7 6 5 7 9 9 10 11 9 9 11 13 13 10 8 5 4 6 10 8 6 6 7 10 13 14 17 19 18 19 21 24 24 23 24 22 16 14 13 11 10 10 11 13 13 12 12 12 10
3 5 6 6 6 6 6 5 4 4 5 7 11 14 14 16 16 17 16 13 17 27 32 31 31 28 23 23 24 22 18 17 15 15 16 14 15 14 11 12 10 7 10 14 13 12 13 14 14 13 16 15 13 13 10 10 13 12 8 7 6 7 10 12 12 16 19 18 19 22 24 25 24 23 21 19 17 13 10 10 12 14 14 13 12 11 11 10
4 5 6 7 7 8 9 9 7 6 4 5 8 9 9 13 15 13 15 17 18 24 30 33 34 32 30 29 28 25 24 24 21 20 21 20 22 25 19 13 14 15 15 18 17 16 17 19 17 16 19 18 18 19 16 16 18 13 8 10 12 13 13 11 10 13 16 18 20 23 24 24 23 21 21 20 17 11 10 13 15 16 15 13 13 13 12 11
4 5 6 7 8 8 9 9 9 9 7 6 7 7 8 12 14 14 15 19 20 22 25 28 30 30 31 34 33 30 29 30 28 25 25 25 25 29 26 16 15 21 21 20 19 17 19 23 21 20 22 20 21 23 20 18 20 19 14 12 14 17 17 15 15 15 15 17 20 22 23 23 23 20 18 18 16 12 13 15 15 15 15 13 13 14 13 11
4 5 6 5 6 6 6 7 8 8 8 8 7 7 10 13 14 15 16 18 20 20 21 24 25 23 25 30 34 36 36 34 33 31 32 29 24 25 28 22 18 23 26 24 21 17 19 24 24 22 23 22 23 24 22 21 21 21 19 17 16 17 17 17 19 18 16 18 20 20 20 22 24 19 15 15 16 16 16 16 15 14 14 14 14 13 13 12
3 5 5 4 4 5 5 7 8 7 7 8 8 9 12 14 14 14 16 17 18 18 19 22 23 23 25 27 31 36 39 37 35 36 35 32 24 22 26 27 25 26 28 25 21 18 20 25 26 25 25 24 26 25 24 25 24 23 22 19 18 19 17 14 15 15 16 20 20 19 19 22 24 21 17 16 17 20 19 16 14 14 14 15 14 13 13 12
3 4 5 5 4 4 5 6 7 7 8 9 9 11 13 15 15 15 15 15 15 14 15 18 21 26 29 30 30 34 39 39 36 35 34 31 26 21 23 29 31 29 27 24 22 19 21 26 29 29 27 26 27 27 26 26 25 25 25 21 20 19 13 9 13 14 18 23 21 18 20 23 24 24 23 19 18 21 20 16 14 15 15 16 15 14 14 12
5 5 6 6 6 6 6 6 7 7 8 8 9 11 13 16 17 15 13 13 13 12 13 15 19 25 28 28 28 31 35 38 38 36 34 31 28 24 23 27 30 27 23 22 22 23 25 28 31 32 31 30 29 27 27 28 27 26 27 25 22 18 12 13 16 16 18 21 21 20 22 24 25 26 26 23 19 19 20 18 17 17 16 16 14 14 15 14
8 8 8 9 9 10 10 10 10 10 9 9 10 10 12 16 17 16 14 14 14 13 13 14 17 20 23 25 27 29 32 36 38 38 36 34 34 30 25 27 29 27 25 24 25 28 29 30 33 36 35 33 32 29 26 26 26 26 29 28 24 18 15 18 20 17 14 17 19 20 22 24 26 26 27 25 21 19 21 21 18 16 16 15 14 15 16 15
9 10 10 11 12 13 13 14 14 14 12 14 14 13 13 15 16 16 16 16 16 15 14 15 18 20 20 21 25 28 29 31 35 37 36 35 37 35 31 30 31 31 30 30 30 31 30 31 34 37 37 36 35 33 30 28 26 25 26 27 24 21 21 22 20 16 14 17 20 21 21 23 24 25 25 26 26 24 23 22 18 14 15 14 14 16 16 15
11 11 11 12 13 14 15 15 16 16 15 17 18 17 17 17 16 16 17 18 19 18 16 17 20 21 21 21 24 26 27 28 30 32 33 32 33 36 35 35 35 35 35 35 34 33 32 32 32 34 36 36 35 36 36 34 31 28 25 25 24 23 22 23 22 19 18 20 22 22 22 21 22 24 25 27 30 27 21 19 17 14 14 14 15 16 16 15
11 11 12 12 13 14 14 15 15 15 15 16 18 19 19 19 19 19 20 20 22 22 21 20 22 22 22 23 25 25 25 27 27 27 29 28 29 31 33 35 39 40 38 37 37 35 33 31 30 30 33 34 35 37 37 35 32 27 24 26 26 24 23 22 23 21 19 20 22 24 26 26 25 26 27 29 29 22 17 17 17 13 12 13 14 13 14 14
Wind_Direction
210 212 213 212 208 203 202 198 193 190 188 187 183 180 179 179 176 171 165 161 158 156 154 151 146 140 138 134 132 131 135 139 147 159 170 173 162 144 130 70 45 42 36 33 31 28 28 32 37 28 34 56 65 69 73 68 74 76 69 52 50 48 37 33 23 11 5 3 1 356 346 336 343 346 340 344 343 298 263 272 272 291 307 275 254 259 239 212
208 209 210 210 206 202 199 194 191 189 189 186 181 179 179 178 175 170 165 161 159 157 155 152 147 142 140 137 136 132 133 134 138 154 166 171 155 144 128 73 26 45 42 22 10 8 18 21 20 27 27 20 34 143 190 34 61 72 70 54 46 42 35 32 20 9 3 355 358 3 352 337 338 342 343 347 340 300 263 263 265 286 324 308 254 254 234 209
209 207 208 207 205 202 200 196 193 191 191 186 181 179 179 178 174 169 165 164 162 160 158 153 148 143 139 136 136 127 122 134 143 182 190 196 195 138 99 59 2 38 45 358 346 350 359 355 9 27 357 323 319 235 263 337 38 60 67 60 51 43 36 29 14 9 4 354 358 8 3 351 336 325 334 345 334 305 266 262 274 283 308 324 255 252 253 240
210 207 205 205 204 203 200 198 194 192 191 185 180 179 180 178 174 170 167 167 167 165 161 155 148 144 138 133 132 119 112 143 168 260 251 278 284 299 322 354 358 6 332 326 334 344 342 339 11 20 312 304 311 304 302 321 15 44 58 62 60 50 36 28 15 6 358 351 356 3 2 360 341 316 315 330 336 318 281 269 279 283 294 301 249 255 262 248
210 207 204 203 203 202 199 198 194 191 189 183 180 180 181 180 177 174 172 172 172 171 166 160 153 149 145 143 142 120 110 178 195 288 268 284 288 290 305 300 320 309 294 312 320 334 333 333 7 356 309 313 325 327 317 319 10 44 59 70 69 52 28 25 17 4 353 351 357 358 356 355 342 323 313 320 330 326 312 293 280 279 286 284 264 271 278 258
209 207 204 202 201 200 198 195 192 190 185 180 179 181 183 183 181 180 179 178 177 178 177 171 164 160 158 158 181 195 189 220 295 308 278 279 282 282 290 284 292 286 284 302 307 315 321 324 348 343 319 324 331 327 314 323 8 45 66 80 72 49 23 19 15 3 357 358 1 359 357 352 336 324 318 316 318 320 321 315 302 287 278 286 296 309 309 299
208 207 204 200 199 197 195 193 189 186 181 179 180 182 185 187 187 187 188 187 185 188 189 186 183 180 184 194 246 243 234 265 281 292 283 277 277 277 281 277 278 273 273 291 295 300 314 324 347 347 326 323 322 313 315 342 6 23 59 74 62 45 24 11 5 3 4 3 4 1 359 352 339 336 331 316 307 311 320 322 329 318 302 306 322 332 324 308
205 206 203 199 196 194 192 189 186 182 180 180 183 185 189 192 194 196 198 199 198 201 202 202 203 205 221 245 258 254 247 258 267 280 288 285 279 276 280 276 269 267 267 276 283 294 307 320 347 346 324 314 312 312 329 5 10 11 46 59 50 43 27 11 3 6 7 2 1 359 359 355 349 347 340 308 295 298 305 314 331 332 341 346 331 342 343 322
203 204 202 199 195 192 190 187 184 181 181 184 187 190 194 197 202 205 208 211 212 215 215 216 219 224 237 250 256 257 255 259 266 275 281 285 282 277 279 276 270 267 266 269 276 287 295 297 309 323 314 310 314 329 351 10 10 7 31 43 46 47 30 16 9 6 1 358 357 353 356 1 0 0 358 311 291 290 288 301 323 327 350 357 340 354 355 334
202 202 201 200 196 193 190 187 185 184 185 188 192 196 200 203 208 212 215 219 221 224 225 227 230 233 241 250 256 258 258 262 266 269 275 280 278 276 275 273 271 267 263 267 271 276 279 281 287 300 310 311 318 349 13 18 8 12 28 33 46 58 39 21 15 9 0 358 356 351 354 8 13 9 7 343 309 295 282 286 295 297 319 335 328 338 341 310
202 202 202 201 199 196 192 191 190 190 192 195 199 202 206 209 213 217 220 224 226 229 230 232 236 239 243 250 255 258 257 260 264 266 271 274 272 272 271 269 268 265 263 264 266 269 273 278 283 292 307 314 318 348 25 24 346 15 47 48 60 73 47 25 21 18 10 1 358 353 351 359 5 360 358 358 351 309 273 271 270 276 299 297 284 295 314 283
204 203 203 202 201 200 197 197 197 198 200 202 205 208 212 216 219 223 226 229 231 233 236 238 240 243 247 250 253 257 258 258 261 265 268 268 267 266 266 265 263 262 262 263 264 267 273 280 288 290 296 306 316 340 5 340 329 6 45 61 80 97 63 27 25 22 13 5 3 358 347 345 352 356 353 351 354 6 344 301 274 261 277 275 257 265 274 261
207 206 206 206 205 205 203 203 204 206 208 210 213 215 219 222 225 229 231 234 236 239 241 243 246 248 250 251 251 256 259 258 259 263 264 263 262 261 260 259 258 259 261 263 264 267 271 269 271 278 287 298 311 321 309 300 321 0 346 357 47 63 34 26 27 20 11 6 1 357 350 344 349 357 352 342 340 358 22 6 309 264 262 260 242 249 262 259
210 210 210 210 210 210 209 210 211 213 215 218 220 223 226 228 231 233 236 238 241 243 246 248 250 252 253 255 256 257 259 262 262 261 262 260 259 257 256 256 256 256 259 262 265 269 269 256 252 259 270 280 291 295 291 296 306 322 328 326 342 356 1 23 26 11 4 1 350 349 355 353 352 354 345 334 337 344 359 354 326 282 267 246 226 234 264 265
214 214 214 215 216 217 217 217 218 220 223 225 227 230 232 235 237 240 241 244 247 250 252 254 256 257 258 260 261 260 259 261 261 261 262 260 258 255 253 253 253 254 257 261 265 269 265 254 250 249 251 254 268 282 281 294 313 328 342 331 331 348 359 9 11 356 352 352 342 341 350 355 356 353 345 340 344 344 331 334 358 321 269 247 251 310 304 272
218 218 218 219 221 222 224 224 225 227 229 232 234 236 239 242 244 247 249 252 254 256 259 260 261 262 263 263 264 263 259 256 257 259 260 259 257 254 251 250 251 253 255 257 261 263 261 255 250 243 246 252 252 261 256 227 260 295 315 314 321 346 355 351 345 335 329 332 337 337 339 348 354 350 348 347 344 342 333 341 11 358 277 242 254 298 296 283
224 224 224 224 225 227 228 230 231 233 235 237 239 241 244 247 249 252 254 256 258 260 261 262 262 263 263 265 265 264 260 257 255 254 255 255 254 252 249 248 249 251 252 255 257 257 256 252 249 243 245 253 254 262 261 239 254 277 295 312 333 342 339 333 319 309 303 308 332 338 335 342 348 345 346 347 338 332 336 350 356 341 305 268 243 263 272 272
226 228 229 229 230 231 232 234 235 236 238 240 242 244 247 249 251 253 255 256 257 258 258 259 261 263 264 266 266 265 264 261 255 252 250 249 249 248 246 245 246 248 249 250 252 252 250 245 244 233 223 231 239 252 252 240 251 267 288 321 352 327 319 311 294 288 293 307 334 340 333 338 343 340 342 347 340 326 327 341 339 324 317 304 274 259 254 249
229 229 231 233 233 234 235 236 237 239 240 241 243 244 246 247 249 250 250 251 252 253 255 258 260 262 264 262 259 258 260 258 252 248 245 242 243 243 243 243 244 245 246 246 246 246 245 243 239 226 217 222 225 235 235 237 255 268 284 309 331 300 302 299 290 287 291 312 337 336 332 335 340 337 338 347 350 338 328 321 314 307 307 300 281 269 270 270
237 234 234 234 235 236 236 237 238 239 240 242 242 243 243 244 244 245 246 247 249 251 253 255 257 259 260 256 252 253 252 249 245 242 239 237 238 240 241 242 242 243 243 242 240 240 242 242 240 229 221 222 225 234 236 244 263 273 281 308 1 324 307 301 302 298 292 315 334 332 336 334 331 333 336 345 354 352 336 313 300 296 285 280 280 274 276 277
245 242 240 238 239 238 238 239 239 239 240 241 242 242 242 240 241 243 246 248 248 250 253 255 257 256 253 249 248 250 247 243 240 237 235 235 236 239 240 241 241 241 241 241 235 235 241 243 242 235 226 221 222 231 242 252 261 268 275 317 17 346 310 292 288 292 307 325 331 338 344 334 327 330 330 338 349 354 345 323 304 298 284 273 279 281 278 274
249 247 245 244 244 243 241 241 241 240 241 241 242 243 243 242 243 246 249 251 249 250 253 252 250 249 247 245 244 244 244 244 242 236 233 234 237 239 239 242 241 240 241 238 231 232 239 247 253 251 242 231 222 226 238 245 254 267 292 24 29 337 302 285 269 307 342 331 336 348 340 328 325 324 323 331 343 346 343 335 318 304 294 283 279 274 272 272
251 250 248 247 248 248 246 244 244 244 243 243 244 244 245 244 245 247 248 250 249 247 250 250 249 248 246 242 242 243 241 243 244 238 234 236 238 239 240 242 241 241 238 232 232 236 239 246 254 258 258 249 236 231 234 242 261 8 74 59 46 32 358 0 328 339 341 324 334 341 324 318 319 318 321 329 336 338 338 336 325 307 297 291 283 272 269 273
255 254 253 250 249 248 247 246 246 246 246 245 244 244 245 244 243 245 246 249 250 247 252 254 251 250 248 243 242 244 240 241 246 241 238 240 238 240 242 241 241 239 233 223 224 234 237 235 236 245 256 252 236 222 225 234 158 114 107 82 69 104 88 346 330 325 328 317 321 320 306 307 311 313 320 329 338 347 346 337 324 311 303 295 291 287 284 285
259 258 256 253 250 248 247 246 244 244 244 244 243 243 245 245 243 243 244 249 250 248 251 253 252 252 252 248 243 246 245 243 246 244 240 239 239 242 242 240 236 228 224 219 218 229 235 233 237 243 246 237 212 200 223 140 97 119 128 104 74 55 268 300 310 307 308 307 305 302 296 299 304 308 317 325 333 341 343 338 324 311 305 303 303 304 303 302
259 258 256 253 251 251 251 248 246 244 242 243 243 241 241 243 243 241 242 246 250 251 250 250 252 254 253 248 242 244 245 237 239 243 238 236 240 241 238 236 232 226 225 219 215 227 235 236 246 249 236 218 184 149 124 114 107 105 176 203 344 316 276 276 303 300 285 285 295 297 294 294 300 307 313 315 315 322 334 335 325 311 305 309 313 312 310 309
259 258 256 253 252 254 253 251 249 246 243 243 243 240 236 235 236 237 239 243 244 245 250 251 247 243 244 243 237 236 238 232 233 238 234 230 231 226 224 225 224 228 234 227 211 216 227 228 231 217 129 144 149 126 134 155 148 133 205 253 297 288 278 282 319 357 302 288 300 301 299 298 302 307 309 309 310 314 322 323 320 314 309 308 310 310 305 304
264 260 258 255 252 253 252 251 249 244 240 239 240 239 233 230 229 224 216 204 204 222 232 229 217 221 234 234 229 227 227 229 234 235 229 226 218 210 213 219 222 228 239 237 221 220 223 222 226 216 161 165 165 160 168 176 176 181 218 240 255 263 272 275 286 335 299 289 299 301 300 301 306 307 306 308 312 315 315 312 311 314 314 309 308 305 296 299
277 268 263 258 253 251 249 248 246 240 236 234 234 230 219 218 212 199 188 165 162 200 215 203 190 191 220 216 211 214 205 203 219 225 221 219 214 209 205 209 220 233 235 234 240 246 249 257 269 186 152 175 189 200 207 201 212 237 242 236 241 251 260 262 256 260 274 284 296 294 290 296 306 310 310 314 317 317 312 304 303 310 317 319 313 303 290 294
296 284 271 261 254 249 244 243 243 239 233 228 228 221 209 209 198 187 188 172 168 174 171 191 194 182 199 215 210 212 201 183 189 217 217 206 205 205 195 195 204 223 224 203 223 268 286 7 16 88 116 178 247 252 261 256 258 277 274 246 214 231 262 264 258 263 282 289 286 282 281 285 302 317 324 323 320 319 314 309 310 314 320 325 319 305 296 298
312 304 289 272 258 249 242 239 239 237 232 224 221 216 208 204 190 185 194 182 187 209 195 192 211 199 200 220 222 221 208 187 188 212 217 206 202 195 187 194 198 204 210 191 183 218 198 145 71 78 64 6 348 287 285 274 270 282 276 259 237 247 292 279 259 293 324 303 280 283 287 288 302 320 327 322 320 326 322 316 317 318 318 323 318 306 304 307
317 315 310 296 272 254 242 236 234 233 230 222 217 213 206 197 189 195 207 200 198 207 197 183 213 226 225 235 237 232 218 202 197 205 213 214 207 197 194 198 203 200 206 213 214 223 202 167 63 50 29 9 39 16 347 293 235 185 192 248 238 238 295 1 324 321 319 302 297 304 316 319 315 321 326 322 320 321 319 314 312 311 312 320 317 304 298 298
314 313 313 313 298 274 249 237 231 227 225 220 214 211 203 194 193 200 207 208 204 196 196 196 189 207 267 256 244 243 227 211 200 199 206 213 207 205 204 201 206 204 204 221 231 227 205 180 66 27 9 4 175 7 3 328 187 134 134 161 169 211 327 348 325 302 301 305 312 314 315 314 311 317 325 326 321 317 322 324 318 312 308 312 316 305 293 288
309 308 308 307 306 303 270 241 230 223 219 215 211 207 202 197 199 204 208 213 217 217 225 226 204 167 334 281 252 245 234 221 210 204 202 206 205 206 209 201 209 219 216 211 216 216 210 209 224 322 351 303 206 24 20 109 167 39 59 167 122 13 348 329 295 291 302 305 306 307 307 307 307 311 320 323 322 324 330 330 324 320 312 306 311 306 298 292
307 303 305 303 298 306 305 263 231 220 213 210 205 200 200 201 205 211 212 214 216 211 228 243 214 148 357 306 270 230 231 238 225 215 205 204 204 206 207 200 213 231 226 209 205 203 202 213 219 234 334 285 46 60 123 147 159 158 146 131 55 3 342 318 292 293 302 302 301 301 301 304 307 310 316 320 326 332 332 330 328 324 316 308 299 292 287 289
312 305 306 302 292 293 304 301 233 212 204 201 197 194 197 201 210 216 215 217 214 192 209 241 208 140 307 305 313 236 234 257 245 235 230 221 215 214 216 212 216 229 230 215 199 189 182 166 150 33 351 325 39 20 217 223 220 182 168 220 209 300 308 294 286 293 299 298 298 300 301 308 317 322 320 320 329 332 326 324 325 321 315 311 302 295 291 290
313 313 315 308 295 284 281 292 241 199 194 195 195 196 197 199 210 218 216 217 214 186 183 210 193 187 209 195 190 225 230 266 275 273 275 261 250 246 246 233 218 224 230 221 196 174 157 139 135 50 5 335 249 343 312 290 259 175 170 252 229 228 280 272 265 281 290 290 295 305 310 316 324 327 325 329 338 332 321 315 313 311 310 309 306 303 305 306
303 308 320 325 312 283 262 254 224 194 192 199 199 198 201 203 211 220 215 211 212 195 182 187 198 210 211 191 193 212 207 189 263 291 305 298 285 266 259 244 232 242 235 223 205 177 164 161 177 184 67 349 276 176 12 343 2 187 212 268 285 268 273 266 264 279 289 297 303 304 309 317 324 325 322 329 333 326 320 313 304 299 299 303 305 307 313 314
287 293 307 329 341 322 270 238 223 203 196 203 201 196 204 211 217 223 218 208 209 203 190 192 205 211 212 213 214 225 223 200 215 245 274 294 293 256 233 197 265 276 243 227 214 198 210 205 202 200 163 271 251 146 132 312 24 355 260 240 270 274 268 264 272 288 295 301 302 299 308 321 331 331 323 325 326 319 315 311 303 295 295 303 310 317 322 316
277 282 288 306 333 343 310 238 224 212 203 205 200 197 207 215 221 228 228 212 206 206 199 199 206 207 206 213 216 223 229 221 220 209 217 267 262 201 209 229 288 281 230 239 229 215 243 236 213 230 218 212 212 164 121 143 348 321 270 215 230 256 286 283 280 288 292 296 298 301 311 319 329 332 328 328 327 321 315 310 310 305 305 317 327 333 333 318
284 282 283 286 287 293 299 268 239 225 220 218 206 205 214 220 222 227 233 223 207 208 208 205 208 209 205 207 211 212 215 226 236 215 201 237 230 213 273 264 261 269 232 245 250 235 254 264 256 247 215 200 209 196 160 165 236 260 243 198 195 218 261 276 277 284 291 298 301 304 309 314 321 323 324 326 326 326 325 320 323 320 320 331 338 337 333 319
296 288 287 286 279 275 270 264 255 238 238 238 225 223 231 232 233 233 233 227 212 210 214 213 214 215 206 201 206 210 210 216 226 220 207 211 208 206 238 239 213 213 224 226 235 245 254 263 268 244 209 201 205 197 197 217 232 246 253 253 246 230 247 264 273 282 287 293 299 302 306 312 316 317 322 325 319 320 328 330 331 328 329 337 340 337 331 325
286 286 287 286 280 273 265 259 258 251 242 245 243 248 251 244 250 256 242 231 221 215 217 220 222 223 217 211 210 212 217 215 214 218 215 212 210 206 209 210 195 196 210 212 218 235 242 247 258 244 220 212 202 198 213 227 225 228 242 251 247 241 248 259 270 278 281 288 295 298 300 305 309 317 329 329 317 310 320 328 331 330 332 337 337 333 330 333
292 290 285 285 282 278 274 271 273 274 270 267 264 262 254 246 249 254 245 237 231 224 222 225 229 230 228 226 224 222 225 220 212 217 222 222 221 213 204 199 192 194 204 214 222 233 236 237 244 243 235 227 210 205 213 220 218 219 230 246 245 243 249 254 258 265 274 285 292 294 299 304 309 320 335 335 323 311 315 326 331 331 332 333 330 328 331 342
303 298 290 291 291 287 283 272 270 278 279 273 269 259 251 250 251 250 248 247 244 237 231 229 230 231 230 230 227 225 226 223 215 218 227 230 231 220 205 197 196 199 205 217 228 236 236 235 238 239 239 234 221 215 217 221 220 222 234 250 252 245 241 248 259 265 270 280 288 292 301 309 313 323 340 338 327 320 320 329 334 332 333 332 329 331 339 349
304 303 305 313 318 309 289 266 259 260 260 258 256 252 252 255 256 254 253 253 250 242 235 232 228 226 226 224 221 221 223 224 219 218 225 230 232 227 209 198 198 203 206 215 229 237 237 238 239 241 242 239 231 227 229 232 231 229 231 238 244 237 226 243 274 286 290 292 294 297 304 310 313 321 333 330 324 325 325 328 333 331 333 337 336 339 347 352
304 297 304 313 326 322 299 284 276 262 256 255 250 249 255 259 259 257 259 261 260 250 240 237 233 230 228 223 218 218 222 226 224 221 222 225 229 234 222 207 203 204 208 217 225 227 231 237 240 244 249 248 241 237 238 240 235 228 223 224 232 234 230 258 284 290 293 291 288 289 299 307 309 312 318 319 319 323 322 321 328 330 333 340 343 347 352 349
308 297 292 294 300 300 293 292 287 275 270 264 254 250 254 262 266 269 271 274 277 269 253 245 241 240 241 237 229 223 222 227 230 226 222 222 227 233 229 218 213 211 214 222 224 222 225 230 236 242 248 251 249 246 245 244 236 225 221 221 227 237 251 266 266 271 282 281 277 283 293 300 302 304 307 311 319 326 322 316 321 328 332 341 350 353 352 346
307 302 296 293 292 288 283 281 277 278 284 278 270 263 260 265 274 282 288 288 286 280 266 257 252 249 250 250 245 237 228 227 231 231 227 224 227 229 227 221 219 218 221 226 229 229 228 230 235 239 241 244 249 250 246 240 236 230 225 224 228 238 251 253 251 256 274 281 279 281 285 289 293 297 303 309 315 321 319 313 315 325 332 342 355 357 352 347
305 302 299 296 294 291 289 288 286 287 289 283 279 277 271 271 277 283 288 288 283 277 269 263 260 257 253 250 248 246 241 235 234 236 235 233 232 232 228 221 220 223 226 227 231 235 236 237 239 241 241 240 241 246 245 239 237 236 233 232 236 241 244 247 250 253 262 272 272 271 276 285 292 296 302 305 306 310 311 305 306 323 335 345 356 354 348 349
311 308 305 299 298 297 296 296 295 294 292 287 283 280 275 274 275 274 274 274 271 269 265 261 260 260 260 256 251 249 249 247 243 241 243 243 240 239 235 228 223 224 229 231 233 236 239 243 246 247 247 244 240 241 242 241 241 245 248 250 251 247 246 249 251 251 255 264 269 272 278 285 289 292 295 296 298 305 311 304 302 319 335 347 357 351 344 349
316 313 311 306 304 303 302 302 302 302 301 294 288 283 277 273 269 265 264 265 267 267 263 260 259 258 257 256 253 248 245 247 248 246 246 245 243 242 242 237 230 227 228 232 235 238 240 244 251 254 253 249 243 240 241 245 250 256 263 266 260 254 255 254 248 243 250 262 269 272 275 277 279 280 283 288 293 304 317 309 303 319 337 348 358 351 338 343